Regional Weather Roundup
Issued by NWS Green Bay, WI

Home | Current Version | Previous Version | Text Only | Print | Product List | Glossary On
Versions: 1 2 3 4 5 6 7 8 9 10 11 12 13 14 15 16 17 18 19 20 21 22 23 24 25 26 27 28 29 30 31 32 33 34 35 36 37 38 39 40 41 42 43 44 45 46 47 48 49 50
000
ASUS43 KGRB 221200
RWRGRB

NORTH-CENTRAL AND NORTHEAST WISCONSIN REGIONAL WEATHER ROUNDUP
NATIONAL WEATHER SERVICE GREEN BAY WI
600 AM CST THU FEB 22 2018

WIZ005-009-010>012-018-019-221300-
NORTH CENTRAL WISCONSIN

CITY           SKY/WX    TMP DP  RH WIND       PRES   REMARKS
IRONWOOD       FAIR     -10 -14  82 CALM      30.61S
MANITOWISH WTR NOT AVBL
ARBOR VITAE    NOT AVBL
EAGLE RIVER    FAIR      -2  -7  80 CALM      30.59R
LAND O LAKES   NOT AVBL
RHINELANDER    MOCLDY     5   2  87 CALM      30.60R
PHILLIPS       NOT AVBL
ANTIGO         NOT AVBL
TOMAHAWK       NOT AVBL
MERRILL        CLOUDY     5   1  86 CALM      30.62S
$$

WIZ013-073-221300-
NORTHEAST WISCONSIN

CITY           SKY/WX    TMP DP  RH WIND       PRES   REMARKS
IRON MOUNTAIN  FAIR       6   2  83 N3        30.63R
MARINETTE      FAIR      17  11  77 NW3       30.68R
$$

WIZ017-030-035>037-045-221300-
CENTRAL WISCONSIN

CITY           SKY/WX    TMP DP  RH WIND       PRES   REMARKS
MEDFORD        NOT AVBL
WAUSAU         MOCLDY     6   3  87 CALM      30.61R
MOSINEE        PTCLDY    10   7  85 E5        30.63R WCI   2
MARSHFIELD     MOCLDY    11   4  73 E6        30.60R WCI   1
WISC RAPIDS    CLOUDY    16   8  71 N7        30.64R WCI   6
STEVENS POINT  NOT AVBL
WAUPACA        NOT AVBL
SHAWANO        CLOUDY    17  10  74 CALM      30.67R
CLINTONVILLE   CLOUDY    17   8  70 N3        30.66S
WAUTOMA        CLOUDY    18  12  77 N8        30.63S WCI   8
$$

WIZ038-039-048-051-221300-
FOX VALLEY

CITY           SKY/WX    TMP DP  RH WIND       PRES   REMARKS
NWS GREEN BAY  CLOUDY    20  11  68 N5        30.66R
APPLETON       CLOUDY    19   9  63 N6        30.62R
OSHKOSH        CLOUDY    21  12  68 N8        30.63R
FOND DU LAC    CLOUDY    22  12  65 N8        30.63R
$$

WIZ022-050-052-221300-
EAST CENTRAL WISCONSIN

CITY           SKY/WX    TMP DP  RH WIND       PRES   REMARKS
EPHRAIM        NOT AVBL
WASHINGTON ISL NOT AVBL
STURGEON BAY   CLOUDY    19  13  77 NW5       30.66R
MANITOWOC      CLOUDY    22  17  81 N8        30.65R
SHEBOYGAN      MOCLDY    23  17  78 N6        30.62R
$$

LMZ563-521-522-541>543-221300-
LAKESHORE

STATION/POSITION TIME  TEMP    WIND        PRES    VSBY  WAVE
                       AIR SEA DIR/SP/G                  HT/PER
                 (UTC) (F)     (DEG/KT/KT) (MB)    (MI)  (FT/S)
SHEBOYGAN LKSHOR 1100   29      40/ 10/ 12 1037.2R
KEWAUNEE LKSHORE 1130   22     310/  4/  5 1036.3R
NORTHPORT PIER   1140   23                 1037.6R
MENOMINEE LKSHOR 1130   17     340/  5/  6 1037.6R
$$




USA.gov is the U.S. government's official web portal to all federal, state and local government web resources and services.